Location: Unspecified
(48.8582°N, 2.2947°E)
Time: 17:23:06
(UTC+02:00)

Daily predictions for brighter satellites

Satellite Brightness Start Highest point End
(mag) Time Altitude Azimuth Time Altitude Azimuth Time Altitude Azimuth
MOS 1 4.5 19:12:35 10° SE 19:18:04 52° ENE 19:23:36 10° N
Cosmos 1400 Rocket 3.3 19:18:03 10° NNW 19:22:04 65° W 19:25:59 10° S
Cosmos 2322 4.2 19:18:35 10° NNW 19:24:18 69° WSW 19:29:57 10° SSE
Cosmos 2219 Rocket 2.3 19:22:52 10° NNW 19:28:23 53° NE 19:33:51 10° SE
CZ-4C R/B 2.9 19:23:46 10° S 19:28:25 32° ESE 19:33:38 10° NE
Ariane Rocket 3.9 19:24:15 10° S 19:29:15 57° WSW 19:34:19 10° NNW
Cosmos 2366 rocket 4.1 19:24:12 10° S 19:30:24 89° W 19:36:36 10° N
SL-8 R/B 3.9 19:27:08 10° WSW 19:31:55 68° SSE 19:36:27 12° E
METEOR-M 4.1 19:27:52 10° SSE 19:33:09 64° ENE 19:38:27 10° N
Cosmos 44 3.5 19:29:30 10° S 19:33:35 41° ESE 19:37:40 10° NE
Sich 1 3.9 19:30:47 10° N 19:34:36 28° ENE 19:38:26 10° SE
Cosmos 2058 3.3 19:31:15 10° NNW 19:35:25 69° W 19:39:32 10° S
ERS-2 2.5 19:32:41 10° S 19:36:22 72° WSW 19:40:05 10° NNW
USA 234 4.0 19:30:22 10° ENE 19:36:31 44° N 19:42:40 10° WNW
Cosmos 2151 3.5 19:33:55 10° NNW 19:38:10 64° W 19:42:22 10° S
BREEZE M DEB (TANK) 2.3 19:34:33 10° W 19:41:06 88° SSW 19:43:18 14° ESE
Cosmos 1726 3.0 19:38:33 10° SSE 19:41:44 28° E 19:44:56 10° NNE
COSMO-SKYMED 1 2.8 19:38:51 10° NNE 19:43:03 46° E 19:47:14 10° S
SMAP 4.3 19:40:57 10° S 19:45:25 47° W 19:49:56 10° NNW
EO 1 Del DPAF 3.2 19:45:22 10° NNE 19:49:13 62° ESE 19:53:01 10° S
Meteor 2-1 Rocket 4.4 19:44:14 10° S 19:50:05 89° W 19:56:05 10° NNE
Landsat 4 3.9 19:46:43 10° N 19:50:26 73° WNW 19:54:08 10° SSW
Abrixas 3.3 19:49:20 10° SSW 19:51:01 20° SSE 19:51:31 19° SE
Resurs 01 Rocket 3.3 19:50:57 14° ENE 19:51:21 14° ENE 19:53:38 10° NNE
Cosmos 1805 Rocket 3.5 19:48:13 10° N 19:52:36 60° ENE 19:56:57 10° SSE
Cosmos 1269 Rocket 4.1 19:51:27 10° S 19:56:35 55° ESE 20:01:45 10° NNE
BREEZE-M DEB (TANK) 2.5 19:56:05 10° SSW 19:57:48 24° SSE 19:58:19 22° ESE
Cosmos 1000 Rocket 4.4 19:52:57 10° N 19:59:13 78° E 20:05:22 10° SSE
CZ-4 R/B 3.1 19:55:33 10° SSW 19:59:27 38° W 20:03:19 10° NNW
Meteor 1-28 Rocket 3.8 19:56:13 10° N 19:59:58 61° WNW 20:03:41 10° SSW
MONITOR-E 4.5 19:58:58 10° S 20:02:02 69° WSW 20:05:07 10° NNW
Cosmos 1666 Rocket 3.7 19:57:53 10° N 20:02:07 49° ENE 20:06:19 10° SSE
Iridium 4 Rocket 3.8 19:56:45 10° S 20:02:26 67° E 20:08:19 10° N
Cosmos 1934 Rocket 4.3 19:56:43 10° SSE 20:02:43 46° E 20:08:44 10° NNE
MTI 4.3 20:01:12 10° N 20:04:24 61° WNW 20:07:34 10° SSW
In-Cosmos 22 Rocket 4.5 19:58:49 10° N 20:04:24 49° ENE 20:10:01 10° SSE
Cosmos 1821 Rocket 4.0 19:59:46 10° S 20:05:51 62° E 20:12:03 10° NNE
Cosmos 1633 Rocket 3.3 20:01:49 10° N 20:06:05 45° ENE 20:10:21 10° SSE
Cosmos 2237 Rocket 2.3 20:01:11 10° NNW 20:06:50 57° ENE 20:12:27 10° SE
YAOGAN 1 3.8 20:03:33 10° S 20:07:42 45° W 20:11:54 10° NNW
Cosmos 2239 Rocket 4.4 20:04:41 10° S 20:10:45 66° E 20:16:53 10° NNE
SPOT 3 Rocket 3.8 20:06:36 10° S 20:11:48 74° WSW 20:17:03 10° NNW
Abrixas rocket 2.3 20:09:10 10° W 20:12:27 67° SSW 20:13:50 31° ESE
Aureole 2 Rocket 3.3 20:09:42 10° NNW 20:13:35 62° WSW 20:17:36 10° S
Cosmos 44 Rocket 3.1 20:09:05 10° SW 20:13:47 87° SE 20:18:02 13° NE
Cosmos 2227 Rocket 2.9 20:13:00 10° SSE 20:17:53 31° ESE 20:20:25 22° ENE
Cosmos 1110 Rocket 3.9 20:12:33 10° NNW 20:17:54 79° ENE 20:23:11 10° SSE
Cosmos 2084 3.9 20:16:21 10° NW 20:20:03 52° SW 20:23:46 10° SSE
SL-16 R/B 2.8 20:14:50 10° NNW 20:20:04 36° NE 20:22:18 26° E
Cosmos 2221 3.1 20:21:14 10° SSW 20:25:32 59° WNW 20:29:53 10° N
Cosmos 2098 Rocket 3.7 20:22:19 10° S 20:27:24 87° WNW 20:33:52 10° N
USA 32 4.3 20:22:53 10° N 20:27:54 43° ENE 20:31:23 18° SE
ATLAS 5 CENTAUR R/B 3.8 20:24:40 10° NNW 20:28:45 21° NNE 20:31:02 17° NE
FREGAT/IRIS 2.4 20:28:38 58° SE 20:29:02 69° ENE 20:32:02 10° N
SKYMED 2 4.2 20:26:53 10° N 20:31:11 59° WNW 20:35:26 10° SSW
Cosmos 1980 3.6 20:25:51 10° NNW 20:31:33 88° ENE 20:37:11 10° SSE
Cosmos 2123 Rocket 3.9 20:26:33 10° N 20:32:50 81° E 20:39:08 10° SSE
SJ-6B 2.7 20:33:58 45° ESE 20:34:48 57° ENE 20:38:30 10° N
Lacrosse 5 rocket 2.6 20:32:28 10° NW 20:36:17 29° N 20:37:18 26° NNE
H-2A R/B 2.6 20:34:38 14° SSE 20:37:55 81° ENE 20:41:53 10° N
Cosmos 967 Rocket 4.5 20:31:54 10° NW 20:38:24 82° NE 20:42:48 22° SE
APEX 4.2 20:36:25 10° WSW 20:39:03 31° NW 20:40:20 21° N
FENGYUN 3A 4.1 20:34:09 10° S 20:39:30 63° WSW 20:44:54 10° NNW
Cosmos 1605 Rocket 3.9 20:34:27 10° S 20:40:25 59° E 20:46:23 10° NNE
NOSS 0 Rocket 4.3 20:35:53 10° NW 20:42:00 65° WSW 20:48:03 10° SSE
Meteor 2-10 3.8 20:38:12 10° S 20:43:15 83° E 20:48:29 10° NNE
Meteor 2-3 Rocket 3.8 20:37:43 10° N 20:43:25 55° ENE 20:46:17 28° SE
ALOS 3.2 20:41:23 10° S 20:45:54 48° W 20:50:27 10° NNW
Cosmos 2333 Rocket 3.0 20:40:19 10° NW 20:45:55 54° WSW 20:51:29 10° S
Envisat 3.4 20:47:11 41° ENE 20:47:18 41° ENE 20:52:03 10° N
Cosmos 2219 3.5 20:44:01 10° SW 20:49:44 67° WNW 20:55:29 10° NNE
Cosmos 1300 2.9 20:46:23 10° SSW 20:50:12 70° WNW 20:54:02 10° N
Cosmos 2251 Rocket 3.6 20:46:09 10° S 20:51:15 51° ESE 20:52:18 44° ENE
Cosmos 1892 3.6 20:49:15 10° N 20:51:44 36° NNE 20:51:44 36° NNE
Cosmos 2297 Rocket 2.3 20:49:24 10° S 20:54:48 48° ESE 20:55:12 47° E
Cosmos 1470 Rocket 3.4 20:56:11 10° N 21:00:42 85° E 21:01:37 56° SSE
SWAS 4.4 20:57:21 10° SSW 21:01:13 69° SSE 21:01:13 69° SSE
Cosmos 2082 3.7 21:00:26 10° S 21:06:01 57° ESE 21:06:15 57° E
CZ-2D R/B 4.1 21:07:53 42° N 21:07:53 42° N 21:10:34 10° N
Thor Agena Rocket 3.6 21:02:17 10° NNE 21:07:24 77° WNW 21:12:26 10° SSW
Cosmos 1447 Rocket 4.4 21:03:45 10° N 21:10:08 85° ENE 21:14:47 19° S
Cosmos 2219 Rocket 4.0 21:07:18 10° NW 21:12:02 29° WSW 21:16:47 10° SSW
SL-8 R/B 3.6 21:09:36 10° W 21:14:25 86° SSW 21:14:25 86° SSW
CZ-4C R/B 2.8 21:11:14 10° WSW 21:16:35 56° NW 21:20:11 24° NNE
USA 234 3.6 21:17:16 43° ENE 21:18:53 52° NNE 21:25:13 10° WNW
Resurs 01 Rocket 2.4 21:28:32 45° NNW 21:28:32 45° NNW 21:31:40 10° NNW
MOS 1-B Rocket 4.2 21:31:38 31° S 21:34:29 67° WSW 21:40:56 10° NNW
Meteor 1-27 4.4 21:38:04 10° SSW 21:43:48 73° WNW 21:49:39 10° N
Cosmos 2237 Rocket 4.0 21:45:51 10° NW 21:50:32 27° WSW 21:54:33 13° SSW
Spot 2 Rocket 4.1 21:51:52 53° NW 21:51:52 53° NW 21:55:59 10° NNW
Cosmos 2227 Rocket 2.9 21:56:11 10° SW 22:01:42 51° NW 22:02:21 48° NNW
SL-16 R/B 3.0 21:58:55 10° NW 22:04:12 47° WSW 22:04:12 47° WSW
ATLAS 5 CENTAUR R/B 3.6 22:09:16 10° NW 22:12:35 33° NNW 22:12:35 33° NNW
Lacrosse 5 rocket 4.1 22:11:57 10° NW 22:12:59 17° NW 22:12:59 17° NW
H-2A R/B 4.5 22:21:37 15° N 22:21:37 15° N 22:22:34 10° N
Cosmos 2297 Rocket 3.9 22:33:54 10° WSW 22:37:07 28° W 22:37:07 28° W
USA 234 4.5 23:04:37 37° WNW 23:04:37 37° WNW 23:08:19 10° WNW
CZ-4C R/B 4.3 23:01:43 10° WNW 23:05:23 24° NNW 23:05:23 24° NNW
